Find Starlink 33936

NORAD ID: 64005 Int'l Des: 2025-101 Owner: SPXS Country: US Constellation: starlink operational
LEOCIRCULAR

現在のビュー

3D地球を読み込み中...

Starlink 33936について

説明を読み込み中...

次回通過

Passes for default location (London). Set your location on the main map for personalized predictions.

高度履歴

Loading altitude history...

軌道要素

1 64005U 25101M 26149.68386459 .00023301 00000-0 85294-3 0 9995
2 64005 43.0014 260.4275 0002363 234.4287 125.6345 15.27604390 59444
Epoch: May 29, 2026 • Age: 21 hours

現在のステータス

高度 485.0 km
速度 7.62 km/s
衛星直下点 -17.09°S, 0.85°E
打ち上げ日 May 14, 2025
運用期間 1 years
タイプ internet

技術仕様

分類 Payload
質量 575.00 kg
乾燥質量 530.00 kg
総質量 575.00 kg
長さ 0.30 m
直径 4.10 m
スパン 29.00 m
形状 Box + pan
製造者 SPXS
バスタイプ Starlink V2MO
フェーズステータス In Orbit
所有者/国 SPXS/US

Most Searched